| time (UTC) | temp F | wind direction | speed MPH | gust MPH | rain 1hr in | rain 24hr in | rain mn in | humidity % | barometer mb |
| 20260510051505 | 65 | 325 | 2.0 | 2.0 | 0.00 | 0.00 | 0.00 | 61 | 1015.3 |
| 20260510051005 | 66 | 332 | 1.0 | 2.0 | 0.00 | 0.00 | 0.00 | 61 | 1015.2 |
| 20260510050505 | 66 | 326 | 2.0 | 2.0 | 0.00 | 0.00 | 0.00 | 62 | 1015.1 |
| 20260510045504 | 68 | 27 | 1.0 | 2.0 | 0.00 | 0.00 | 0.00 | 60 | 1015.2 |
| 20260510045005 | 68 | 4 | 1.0 | 3.0 | 0.00 | 0.00 | 0.00 | 57 | 1015.2 |
| 20260510044504 | 68 | 25 | 1.0 | 1.0 | 0.00 | 0.00 | 0.00 | 55 | 1015.2 |
| 20260510044004 | 69 | 26 | 1.0 | 3.0 | 0.00 | 0.00 | 0.00 | 54 | 1015.2 |
| 20260510043505 | 68 | 323 | 2.0 | 3.0 | 0.00 | 0.00 | 0.00 | 54 | 1015.3 |
| 20260510042505 | 69 | 324 | 1.0 | 2.0 | 0.00 | 0.00 | 0.00 | 55 | 1015.2 |
| 20260510042005 | 69 | 325 | 2.0 | 3.0 | 0.00 | 0.00 | 0.00 | 55 | 1015.1 |
| 20260510041505 | 69 | 318 | 3.0 | 5.0 | 0.00 | 0.00 | 0.00 | 55 | 1015.1 |
| 20260510040504 | 69 | 322 | 2.0 | 3.0 | 0.00 | 0.00 | 0.00 | 53 | 1015.0 |
| 20260510040005 | 69 | 324 | 2.0 | 3.0 | 0.00 | 0.00 | 0.00 | 52 | 1014.9 |
| 20260510035505 | 69 | 328 | 2.0 | 3.0 | 0.00 | 0.00 | 0.00 | 51 | 1014.9 |
| 20260510035004 | 69 | 323 | 2.0 | 5.0 | 0.00 | 0.00 | 0.00 | 51 | 1014.8 |
| 20260510034505 | 69 | 325 | 2.0 | 3.0 | 0.00 | 0.00 | 0.00 | 51 | 1014.7 |
| 20260510034004 | 70 | 331 | 3.0 | 3.0 | 0.00 | 0.00 | 0.00 | 50 | 1014.7 |
| 20260510033504 | 70 | 326 | 2.0 | 3.0 | 0.00 | 0.00 | 0.00 | 49 | 1014.8 |
| 20260510033006 | 70 | 322 | 2.0 | 5.0 | 0.00 | 0.00 | 0.00 | 49 | 1014.7 |
| 20260510032505 | 70 | 308 | 3.0 | 6.0 | 0.00 | 0.00 | 0.00 | 49 | 1014.7 |
| 20260510031505 | 70 | 322 | 2.0 | 5.0 | 0.00 | 0.00 | 0.00 | 49 | 1014.5 |
| 20260510031005 | 71 | 329 | 2.0 | 3.0 | 0.00 | 0.00 | 0.00 | 48 | 1014.6 |
| 20260510025505 | 71 | 330 | 3.0 | 5.0 | 0.00 | 0.00 | 0.00 | 46 | 1014.5 |
| 20260510025005 | 71 | 322 | 3.0 | 7.0 | 0.00 | 0.00 | 0.00 | 45 | 1014.5 |
| 20260510024005 | 72 | 329 | 3.0 | 5.0 | 0.00 | 0.00 | 0.00 | 45 | 1014.4 |
| 20260510023504 | 72 | 326 | 3.0 | 5.0 | 0.00 | 0.00 | 0.00 | 44 | 1014.4 |
| 20260510023005 | 73 | 329 | 3.0 | 5.0 | 0.00 | 0.00 | 0.00 | 44 | 1014.4 |
| 20260510022004 | 74 | 332 | 3.0 | 5.0 | 0.00 | 0.00 | 0.00 | 43 | 1014.4 |
| 20260510021505 | 74 | 334 | 4.0 | 7.0 | 0.00 | 0.00 | 0.00 | 42 | 1014.3 |
| 20260510021004 | 74 | 337 | 5.0 | 7.0 | 0.00 | 0.00 | 0.00 | 42 | 1014.3 |
| 20260510020005 | 75 | 336 | 2.0 | 3.0 | 0.00 | 0.00 | 0.00 | 45 | 1014.4 |
| 20260510015505 | 75 | 325 | 2.0 | 2.0 | 0.00 | 0.00 | 0.00 | 48 | 1014.4 |
| 20260510014504 | 76 | 0 | 2.0 | 5.0 | 0.00 | 0.00 | 0.00 | 48 | 1014.4 |
| 20260510014005 | 76 | 335 | 1.0 | 2.0 | 0.00 | 0.00 | 0.00 | 48 | 1014.5 |
| 20260510013005 | 77 | 6 | 1.0 | 2.0 | 0.00 | 0.00 | 0.00 | 48 | 1014.5 |
| 20260510012505 | 78 | 14 | 2.0 | 3.0 | 0.00 | 0.00 | 0.00 | 45 | 1014.4 |
| 20260510012005 | 79 | 60 | 2.0 | 7.0 | 0.00 | 0.00 | 0.00 | 46 | 1014.4 |
| 20260510011505 | 80 | 64 | 3.0 | 5.0 | 0.00 | 0.00 | 0.00 | 36 | 1014.4 |
| 20260510011005 | 80 | 339 | 1.0 | 2.0 | 0.00 | 0.00 | 0.00 | 27 | 1014.3 |
| 20260510010504 | 80 | 321 | 1.0 | 2.0 | 0.00 | 0.00 | 0.00 | 28 | 1014.4 |
| 20260510005504 | 79 | 353 | 1.0 | 2.0 | 0.00 | 0.00 | 0.00 | 31 | 1014.5 |
| 20260510004505 | 79 | 299 | 1.0 | 2.0 | 0.00 | 0.00 | 0.00 | 29 | 1014.6 |
| 20260510003005 | 79 | 269 | 1.0 | 1.0 | 0.00 | 0.00 | 0.00 | 31 | 1014.7 |
| 20260510002504 | 79 | 13 | 1.0 | 2.0 | 0.00 | 0.00 | 0.00 | 32 | 1014.7 |
| 20260510001504 | 79 | 354 | 2.0 | 3.0 | 0.00 | 0.00 | 0.00 | 28 | 1014.7 |
| 20260510001004 | 79 | 5 | 2.0 | 2.0 | 0.00 | 0.00 | 0.00 | 29 | 1014.8 |
| 20260510000505 | 79 | 326 | 2.0 | 5.0 | 0.00 | 0.00 | 0.00 | 28 | 1014.8 |
| 20260510000005 | 79 | 333 | 2.0 | 3.0 | 0.00 | 0.00 | 0.00 | 32 | 1014.9 |
| 20260509235504 | 79 | 10 | 0.0 | 2.0 | 0.00 | 0.00 | 0.00 | 32 | 1014.9 |
| 20260509235004 | 79 | 294 | 1.0 | 1.0 | 0.00 | 0.00 | 0.00 | 31 | 1015.0 |
| 20260509234005 | 79 | 303 | 1.0 | 2.0 | 0.00 | 0.00 | 0.00 | 30 | 1015.1 |
| 20260509233504 | 79 | 6 | 2.0 | 3.0 | 0.00 | 0.00 | 0.00 | 29 | 1015.1 |
| 20260509232504 | 79 | 16 | 2.0 | 3.0 | 0.00 | 0.00 | 0.00 | 27 | 1015.2 |
| 20260509232004 | 79 | 320 | 1.0 | 2.0 | 0.00 | 0.00 | 0.00 | 29 | 1015.3 |
| 20260509231505 | 79 | 329 | 2.0 | 3.0 | 0.00 | 0.00 | 0.00 | 29 | 1015.4 |
| 20260509231004 | 79 | 351 | 1.0 | 2.0 | 0.00 | 0.00 | 0.00 | 33 | 1015.5 |
| 20260509230504 | 78 | 27 | 1.0 | 3.0 | 0.00 | 0.00 | 0.00 | 35 | 1015.5 |
| 20260509230005 | 78 | 94 | 1.0 | 3.0 | 0.00 | 0.00 | 0.00 | 34 | 1015.7 |
| 20260509225505 | 78 | 6 | 1.0 | 2.0 | 0.00 | 0.00 | 0.00 | 37 | 1015.8 |
| 20260509225004 | 77 | 21 | 1.0 | 2.0 | 0.00 | 0.00 | 0.00 | 36 | 1015.9 |
| 20260509224504 | 77 | 346 | 2.0 | 3.0 | 0.00 | 0.00 | 0.00 | 35 | 1015.9 |
| 20260509223504 | 77 | 42 | 1.0 | 3.0 | 0.00 | 0.00 | 0.00 | 37 | 1016.0 |
| 20260509223005 | 77 | 22 | 2.0 | 3.0 | 0.00 | 0.00 | 0.00 | 36 | 1016.2 |
| 20260509222505 | 77 | 20 | 3.0 | 5.0 | 0.00 | 0.00 | 0.00 | 33 | 1016.3 |
| 20260509222004 | 78 | 24 | 2.0 | 5.0 | 0.00 | 0.00 | 0.00 | 34 | 1016.4 |
| 20260509221506 | 77 | 293 | 1.0 | 3.0 | 0.00 | 0.00 | 0.00 | 34 | 1016.6 |
| 20260509221005 | 77 | 3 | 2.0 | 5.0 | 0.00 | 0.00 | 0.00 | 33 | 1016.6 |
| 20260509220504 | 77 | 61 | 1.0 | 5.0 | 0.00 | 0.00 | 0.00 | 35 | 1016.7 |
| 20260509220005 | 77 | 4 | 1.0 | 3.0 | 0.00 | 0.00 | 0.00 | 32 | 1016.9 |
| 20260509215505 | 76 | 4 | 2.0 | 3.0 | 0.00 | 0.00 | 0.00 | 30 | 1017.0 |
| 20260509215005 | 76 | 335 | 2.0 | 5.0 | 0.00 | 0.00 | 0.00 | 31 | 1017.1 |
| 20260509214504 | 76 | 354 | 3.0 | 7.0 | 0.00 | 0.00 | 0.00 | 36 | 1017.1 |
| 20260509214004 | 76 | 37 | 1.0 | 3.0 | 0.00 | 0.00 | 0.00 | 39 | 1017.1 |
| 20260509213505 | 75 | 334 | 2.0 | 6.0 | 0.00 | 0.00 | 0.00 | 36 | 1017.2 |
| 20260509213006 | 75 | 22 | 3.0 | 7.0 | 0.00 | 0.00 | 0.00 | 36 | 1017.2 |
| 20260509211505 | 74 | 349 | 2.0 | 6.0 | 0.00 | 0.00 | 0.00 | 40 | 1017.3 |
| 20260509211004 | 74 | 356 | 2.0 | 6.0 | 0.00 | 0.00 | 0.00 | 42 | 1017.4 |
| 20260509210504 | 74 | 352 | 2.0 | 9.0 | 0.00 | 0.00 | 0.00 | 39 | 1017.5 |
| 20260509210005 | 73 | 83 | 5.0 | 7.0 | 0.00 | 0.00 | 0.00 | 42 | 1017.6 |
| 20260509205504 | 73 | 354 | 2.0 | 5.0 | 0.00 | 0.00 | 0.00 | 41 | 1017.7 |
| 20260509205005 | 73 | 331 | 1.0 | 5.0 | 0.00 | 0.00 | 0.00 | 44 | 1017.6 |
| 20260509204504 | 73 | 332 | 3.0 | 5.0 | 0.00 | 0.00 | 0.00 | 43 | 1017.7 |
| 20260509204004 | 73 | 33 | 1.0 | 5.0 | 0.00 | 0.00 | 0.00 | 41 | 1017.7 |
| 20260509203505 | 72 | 339 | 2.0 | 5.0 | 0.00 | 0.00 | 0.00 | 43 | 1017.8 |
| 20260509203004 | 72 | 359 | 2.0 | 6.0 | 0.00 | 0.00 | 0.00 | 46 | 1017.8 |
| 20260509202504 | 71 | 336 | 2.0 | 5.0 | 0.00 | 0.00 | 0.00 | 49 | 1018.0 |
| 20260509202004 | 71 | 333 | 3.0 | 5.0 | 0.00 | 0.00 | 0.00 | 50 | 1018.1 |
| 20260509201004 | 71 | 16 | 2.0 | 5.0 | 0.00 | 0.00 | 0.00 | 48 | 1018.2 |
| 20260509200504 | 71 | 321 | 2.0 | 3.0 | 0.00 | 0.00 | 0.00 | 49 | 1018.3 |
| 20260509200005 | 71 | 340 | 1.0 | 3.0 | 0.00 | 0.00 | 0.00 | 50 | 1018.4 |
| 20260509195505 | 70 | 310 | 1.0 | 5.0 | 0.00 | 0.00 | 0.00 | 47 | 1018.4 |
| 20260509195004 | 70 | 330 | 2.0 | 5.0 | 0.00 | 0.00 | 0.00 | 51 | 1018.4 |
| 20260509194505 | 70 | 37 | 2.0 | 5.0 | 0.00 | 0.00 | 0.00 | 49 | 1018.5 |
| 20260509194004 | 69 | 343 | 2.0 | 7.0 | 0.00 | 0.00 | 0.00 | 51 | 1018.7 |
| 20260509193504 | 69 | 13 | 4.0 | 7.0 | 0.00 | 0.00 | 0.00 | 49 | 1018.7 |
| 20260509192505 | 68 | 330 | 2.0 | 5.0 | 0.00 | 0.00 | 0.00 | 56 | 1018.9 |
| 20260509192004 | 68 | 0 | 1.0 | 6.0 | 0.00 | 0.00 | 0.00 | 57 | 1019.0 |
| 20260509190504 | 67 | 79 | 2.0 | 5.0 | 0.00 | 0.00 | 0.00 | 59 | 1019.2 |
| 20260509190005 | 67 | 352 | 3.0 | 7.0 | 0.00 | 0.00 | 0.00 | 61 | 1019.3 |
| 20260509185504 | 67 | 275 | 1.0 | 6.0 | 0.00 | 0.00 | 0.00 | 59 | 1019.3 |
| 20260509185004 | 67 | 316 | 2.0 | 6.0 | 0.00 | 0.00 | 0.00 | 58 | 1019.5 |
| 20260509184504 | 67 | 8 | 3.0 | 5.0 | 0.00 | 0.00 | 0.00 | 58 | 1019.5 |
| 20260509184004 | 67 | 276 | 1.0 | 5.0 | 0.00 | 0.00 | 0.00 | 59 | 1019.5 |
| 20260509183005 | 66 | 23 | 1.0 | 2.0 | 0.00 | 0.00 | 0.00 | 60 | 1019.6 |
| 20260509182004 | 66 | 1 | 2.0 | 3.0 | 0.00 | 0.00 | 0.00 | 62 | 1019.6 |
| 20260509181504 | 66 | 68 | 2.0 | 5.0 | 0.00 | 0.00 | 0.00 | 63 | 1019.7 |
| 20260509181004 | 66 | 20 | 1.0 | 2.0 | 0.00 | 0.00 | 0.00 | 63 | 1019.7 |
| 20260509180504 | 65 | 349 | 3.0 | 6.0 | 0.00 | 0.00 | 0.00 | 64 | 1019.6 |
| 20260509180004 | 65 | 320 | 2.0 | 3.0 | 0.00 | 0.00 | 0.00 | 65 | 1019.7 |
| 20260509175504 | 64 | 15 | 2.0 | 3.0 | 0.00 | 0.00 | 0.00 | 65 | 1019.7 |
| 20260509174504 | 64 | 322 | 1.0 | 2.0 | 0.00 | 0.00 | 0.00 | 69 | 1019.8 |
| 20260509173504 | 63 | 24 | 2.0 | 3.0 | 0.00 | 0.00 | 0.00 | 68 | 1019.9 |
| 20260509173005 | 62 | 15 | 2.0 | 3.0 | 0.00 | 0.00 | 0.00 | 69 | 1019.9 |
| 20260509172504 | 62 | 21 | 1.0 | 2.0 | 0.00 | 0.00 | 0.00 | 71 | 1020.0 |
| 20260509172004 | 62 | 345 | 1.0 | 5.0 | 0.00 | 0.00 | 0.00 | 68 | 1020.0 |
| 20260509171504 | 62 | 286 | 1.0 | 2.0 | 0.00 | 0.00 | 0.00 | 69 | 1020.1 |
| 20260509171004 | 62 | 23 | 2.0 | 2.0 | 0.00 | 0.00 | 0.00 | 71 | 1020.1 |
| 20260509170504 | 61 | 11 | 1.0 | 3.0 | 0.00 | 0.00 | 0.00 | 71 | 1020.1 |
| 20260509170004 | 61 | 37 | 2.0 | 3.0 | 0.00 | 0.00 | 0.00 | 71 | 1020.1 |
| 20260509165504 | 61 | 338 | 1.0 | 2.0 | 0.00 | 0.00 | 0.00 | 71 | 1020.3 |
| 20260509165004 | 61 | 344 | 2.0 | 3.0 | 0.00 | 0.00 | 0.00 | 72 | 1020.3 |
| 20260509164505 | 60 | 65 | 2.0 | 5.0 | 0.00 | 0.00 | 0.00 | 74 | 1020.3 |
| 20260509164004 | 60 | 29 | 1.0 | 2.0 | 0.00 | 0.00 | 0.00 | 74 | 1020.5 |
| 20260509162504 | 59 | 61 | 2.0 | 3.0 | 0.00 | 0.00 | 0.00 | 77 | 1020.5 |
| 20260509162004 | 59 | 340 | 2.0 | 2.0 | 0.00 | 0.00 | 0.00 | 78 | 1020.7 |
| 20260509161504 | 59 | 350 | 1.0 | 2.0 | 0.00 | 0.00 | 0.00 | 79 | 1020.7 |
| 20260509161004 | 58 | 354 | 1.0 | 3.0 | 0.00 | 0.00 | 0.00 | 80 | 1020.8 |
| 20260509160504 | 58 | 355 | 1.0 | 3.0 | 0.00 | 0.00 | 0.00 | 81 | 1020.8 |
| 20260509160005 | 57 | 59 | 1.0 | 3.0 | 0.00 | 0.00 | 0.00 | 83 | 1020.9 |
| 20260509155504 | 57 | 6 | 1.0 | 2.0 | 0.00 | 0.00 | 0.00 | 83 | 1021.0 |
| 20260509155004 | 56 | 2 | 1.0 | 2.0 | 0.00 | 0.00 | 0.00 | 83 | 1021.1 |
| 20260509154505 | 56 | 121 | 1.0 | 2.0 | 0.00 | 0.00 | 0.00 | 85 | 1021.1 |
| 20260509154004 | 55 | 101 | 1.0 | 2.0 | 0.00 | 0.00 | 0.00 | 86 | 1021.1 |
| 20260509153504 | 54 | 9 | 1.0 | 3.0 | 0.00 | 0.00 | 0.00 | 87 | 1021.2 |
| 20260509153004 | 54 | 91 | 2.0 | 3.0 | 0.00 | 0.00 | 0.00 | 88 | 1021.0 |
| 20260509152503 | 53 | 0 | 0.0 | 2.0 | 0.00 | 0.00 | 0.00 | 88 | 1021.1 |
| 20260509151504 | 52 | 40 | 2.0 | 2.0 | 0.00 | 0.00 | 0.00 | 89 | 1021.1 |
| 20260509151005 | 52 | 27 | 1.0 | 2.0 | 0.00 | 0.00 | 0.00 | 89 | 1021.3 |
| 20260509150505 | 52 | 38 | 1.0 | 2.0 | 0.00 | 0.00 | 0.00 | 90 | 1021.3 |
| 20260509150005 | 51 | 86 | 1.0 | 2.0 | 0.00 | 0.00 | 0.00 | 90 | 1021.3 |
| 20260509145506 | 50 | 0 | 0.0 | 2.0 | 0.00 | 0.00 | 0.00 | 90 | 1021.3 |
| 20260509145006 | 50 | 105 | 0.0 | 2.0 | 0.00 | 0.00 | 0.00 | 91 | 1021.4 |
| 20260509144505 | 50 | 105 | 1.0 | 2.0 | 0.00 | 0.00 | 0.00 | 91 | 1021.4 |
| 20260509143005 | 49 | 106 | 0.0 | 0.0 | 0.00 | 0.00 | 0.00 | 91 | 1021.4 |
| 20260509142005 | 48 | 105 | 0.0 | 2.0 | 0.00 | 0.00 | 0.00 | 91 | 1021.2 |
| 20260509141506 | 48 | 105 | 0.0 | 2.0 | 0.00 | 0.00 | 0.00 | 91 | 1021.0 |
| 20260509140505 | 48 | 145 | 0.0 | 0.0 | 0.00 | 0.00 | 0.00 | 91 | 1021.1 |
| 20260509140006 | 47 | 145 | 0.0 | 0.0 | 0.00 | 0.00 | 0.00 | 91 | 1021.1 |
| 20260509135506 | 47 | 145 | 0.0 | 0.0 | 0.00 | 0.00 | 0.00 | 91 | 1021.1 |
| 20260509134005 | 47 | 0 | 1.0 | 2.0 | 0.00 | 0.00 | 0.00 | 91 | 1021.1 |
| 20260509133506 | 46 | 0 | 1.0 | 2.0 | 0.00 | 0.00 | 0.00 | 91 | 1021.0 |
| 20260509133006 | 46 | 0 | 1.0 | 1.0 | 0.00 | 0.00 | 0.00 | 91 | 1021.0 |
| 20260509132506 | 46 | 193 | 1.0 | 1.0 | 0.00 | 0.00 | 0.00 | 91 | 1020.9 |
| 20260509132005 | 46 | 144 | 0.0 | 1.0 | 0.00 | 0.00 | 0.00 | 91 | 1020.8 |
| 20260509131505 | 46 | 144 | 1.0 | 2.0 | 0.00 | 0.00 | 0.00 | 91 | 1020.8 |
| 20260509130006 | 46 | 215 | 0.0 | 2.0 | 0.00 | 0.00 | 0.00 | 91 | 1020.8 |
| 20260509125505 | 46 | 215 | 1.0 | 2.0 | 0.00 | 0.00 | 0.00 | 91 | 1020.8 |
| 20260509125006 | 46 | 218 | 1.0 | 1.0 | 0.00 | 0.00 | 0.00 | 90 | 1020.9 |
| 20260509124505 | 46 | 215 | 1.0 | 2.0 | 0.00 | 0.00 | 0.00 | 90 | 1020.9 |
| 20260509124005 | 46 | 215 | 1.0 | 1.0 | 0.00 | 0.00 | 0.00 | 90 | 1020.8 |
| 20260509123005 | 46 | 0 | 1.0 | 2.0 | 0.00 | 0.00 | 0.00 | 90 | 1020.8 |
| 20260509122505 | 47 | 1 | 0.0 | 2.0 | 0.00 | 0.00 | 0.00 | 90 | 1020.9 |
| 20260509122005 | 47 | 0 | 1.0 | 1.0 | 0.00 | 0.00 | 0.00 | 90 | 1021.1 |
| 20260509121005 | 47 | 0 | 1.0 | 2.0 | 0.00 | 0.00 | 0.00 | 90 | 1021.1 |
| 20260509120505 | 47 | 0 | 1.0 | 1.0 | 0.00 | 0.00 | 0.00 | 90 | 1021.2 |
| 20260509120006 | 47 | 0 | 1.0 | 2.0 | 0.00 | 0.00 | 0.00 | 90 | 1021.2 |
| 20260509115505 | 47 | 358 | 1.0 | 1.0 | 0.00 | 0.00 | 0.00 | 90 | 1021.1 |
| 20260509115005 | 47 | 0 | 1.0 | 1.0 | 0.00 | 0.00 | 0.00 | 90 | 1021.1 |
| 20260509114505 | 47 | 0 | 0.0 | 2.0 | 0.00 | 0.00 | 0.00 | 90 | 1021.1 |
| 20260509114005 | 47 | 358 | 1.0 | 2.0 | 0.00 | 0.00 | 0.00 | 90 | 1021.1 |
| 20260509113505 | 48 | 0 | 0.0 | 2.0 | 0.00 | 0.00 | 0.00 | 89 | 1021.3 |
| 20260509113006 | 48 | 0 | 0.0 | 0.0 | 0.00 | 0.00 | 0.00 | 89 | 1021.3 |
| 20260509112505 | 48 | 0 | 0.0 | 1.0 | 0.00 | 0.00 | 0.00 | 89 | 1021.2 |
| 20260509112005 | 48 | 0 | 0.0 | 0.0 | 0.00 | 0.00 | 0.00 | 90 | 1021.2 |
| 20260509111506 | 48 | 0 | 0.0 | 1.0 | 0.00 | 0.00 | 0.00 | 90 | 1021.2 |
| 20260509111005 | 48 | 356 | 0.0 | 2.0 | 0.00 | 0.00 | 0.00 | 89 | 1021.2 |
| 20260509110505 | 48 | 0 | 1.0 | 1.0 | 0.00 | 0.00 | 0.00 | 89 | 1021.2 |
| 20260509105506 | 49 | 357 | 1.0 | 1.0 | 0.00 | 0.00 | 0.00 | 89 | 1021.5 |
| 20260509105005 | 49 | 228 | 1.0 | 1.0 | 0.00 | 0.00 | 0.00 | 89 | 1021.5 |
| 20260509104505 | 49 | 223 | 1.0 | 2.0 | 0.00 | 0.00 | 0.00 | 89 | 1021.5 |
| 20260509104005 | 49 | 0 | 0.0 | 1.0 | 0.00 | 0.00 | 0.00 | 89 | 1021.7 |
| 20260509103505 | 49 | 0 | 0.0 | 0.0 | 0.00 | 0.00 | 0.00 | 89 | 1021.7 |
| 20260509103005 | 49 | 0 | 0.0 | 1.0 | 0.00 | 0.00 | 0.00 | 89 | 1021.7 |
| 20260509102505 | 49 | 228 | 0.0 | 2.0 | 0.00 | 0.00 | 0.00 | 89 | 1021.7 |
| 20260509102005 | 49 | 222 | 1.0 | 1.0 | 0.00 | 0.00 | 0.00 | 89 | 1021.7 |
| 20260509101505 | 49 | 0 | 1.0 | 2.0 | 0.00 | 0.00 | 0.00 | 89 | 1021.7 |
| 20260509101005 | 49 | 359 | 1.0 | 2.0 | 0.00 | 0.00 | 0.00 | 89 | 1021.6 |
| 20260509100505 | 49 | 0 | 1.0 | 1.0 | 0.00 | 0.00 | 0.00 | 88 | 1021.6 |
| 20260509100006 | 49 | 0 | 0.0 | 1.0 | 0.00 | 0.00 | 0.00 | 88 | 1021.8 |
| 20260509095505 | 49 | 0 | 0.0 | 2.0 | 0.00 | 0.00 | 0.00 | 88 | 1021.8 |
| 20260509095005 | 49 | 0 | 0.0 | 2.0 | 0.00 | 0.00 | 0.00 | 88 | 1021.8 |
| 20260509094506 | 49 | 0 | 1.0 | 2.0 | 0.00 | 0.00 | 0.00 | 88 | 1021.8 |
| 20260509094005 | 50 | 0 | 0.0 | 0.0 | 0.00 | 0.00 | 0.00 | 88 | 1021.8 |
| 20260509093505 | 50 | 0 | 0.0 | 2.0 | 0.00 | 0.00 | 0.00 | 88 | 1021.7 |
| 20260509093006 | 50 | 0 | 0.0 | 2.0 | 0.00 | 0.00 | 0.00 | 88 | 1021.8 |
| 20260509092506 | 50 | 0 | 0.0 | 1.0 | 0.00 | 0.00 | 0.00 | 88 | 1021.8 |
| 20260509092006 | 50 | 0 | 1.0 | 2.0 | 0.00 | 0.00 | 0.00 | 88 | 1021.8 |
| 20260509091506 | 50 | 223 | 0.0 | 2.0 | 0.00 | 0.00 | 0.00 | 87 | 1021.9 |
| 20260509091005 | 51 | 358 | 0.0 | 2.0 | 0.00 | 0.00 | 0.00 | 87 | 1022.0 |
| 20260509090506 | 51 | 221 | 1.0 | 3.0 | 0.00 | 0.00 | 0.00 | 87 | 1022.0 |
| 20260509090005 | 51 | 165 | 2.0 | 3.0 | 0.00 | 0.00 | 0.00 | 87 | 1022.1 |
| 20260509085505 | 51 | 263 | 1.0 | 2.0 | 0.00 | 0.00 | 0.00 | 87 | 1022.1 |
| 20260509085005 | 51 | 352 | 1.0 | 2.0 | 0.00 | 0.00 | 0.00 | 86 | 1022.1 |
| 20260509084506 | 51 | 359 | 0.0 | 1.0 | 0.00 | 0.00 | 0.00 | 86 | 1022.0 |
| 20260509084006 | 52 | 0 | 0.0 | 2.0 | 0.00 | 0.00 | 0.00 | 86 | 1022.1 |
| 20260509083505 | 52 | 0 | 0.0 | 2.0 | 0.00 | 0.00 | 0.00 | 86 | 1022.2 |
| 20260509083005 | 52 | 236 | 0.0 | 2.0 | 0.00 | 0.00 | 0.00 | 85 | 1022.3 |
| 20260509082505 | 52 | 0 | 0.0 | 2.0 | 0.00 | 0.00 | 0.00 | 85 | 1022.3 |
| 20260509081505 | 53 | 0 | 0.0 | 2.0 | 0.00 | 0.00 | 0.00 | 84 | 1022.4 |
| 20260509081005 | 53 | 227 | 0.0 | 1.0 | 0.00 | 0.00 | 0.00 | 84 | 1022.3 |
| 20260509080505 | 53 | 302 | 1.0 | 2.0 | 0.00 | 0.00 | 0.00 | 84 | 1022.4 |
| 20260509075505 | 54 | 181 | 0.0 | 2.0 | 0.00 | 0.00 | 0.00 | 84 | 1022.4 |
| 20260509075005 | 54 | 170 | 1.0 | 2.0 | 0.00 | 0.00 | 0.00 | 84 | 1022.4 |
| 20260509074506 | 53 | 191 | 1.0 | 2.0 | 0.00 | 0.00 | 0.00 | 84 | 1022.4 |
| 20260509074004 | 53 | 253 | 1.0 | 2.0 | 0.00 | 0.00 | 0.00 | 85 | 1022.4 |
| 20260509073505 | 53 | 259 | 1.0 | 2.0 | 0.00 | 0.00 | 0.00 | 85 | 1022.5 |
| 20260509073005 | 53 | 335 | 1.0 | 2.0 | 0.00 | 0.00 | 0.00 | 85 | 1022.5 |
| 20260509072005 | 53 | 2 | 0.0 | 2.0 | 0.00 | 0.00 | 0.00 | 84 | 1022.6 |
| 20260509071506 | 53 | 22 | 0.0 | 1.0 | 0.00 | 0.00 | 0.00 | 84 | 1022.6 |
| 20260509071005 | 54 | 21 | 1.0 | 2.0 | 0.00 | 0.00 | 0.00 | 84 | 1022.5 |
| 20260509070505 | 54 | 76 | 1.0 | 2.0 | 0.00 | 0.00 | 0.00 | 83 | 1022.6 |
| 20260509070006 | 54 | 32 | 1.0 | 2.0 | 0.00 | 0.00 | 0.00 | 82 | 1022.5 |
| 20260509064505 | 55 | 12 | 1.0 | 2.0 | 0.00 | 0.00 | 0.00 | 80 | 1022.5 |
| 20260509064005 | 55 | 0 | 0.0 | 2.0 | 0.00 | 0.00 | 0.00 | 79 | 1022.4 |
| 20260509063006 | 56 | 25 | 1.0 | 3.0 | 0.00 | 0.00 | 0.00 | 79 | 1022.5 |
| 20260509062505 | 56 | 320 | 0.0 | 2.0 | 0.00 | 0.00 | 0.00 | 78 | 1022.4 |
| 20260509062005 | 56 | 280 | 0.0 | 2.0 | 0.00 | 0.00 | 0.00 | 78 | 1022.4 |
| 20260509061006 | 57 | 317 | 1.0 | 2.0 | 0.00 | 0.00 | 0.00 | 77 | 1022.3 |
| 20260509060505 | 57 | 327 | 2.0 | 3.0 | 0.00 | 0.00 | 0.00 | 76 | 1022.2 |
| 20260509060006 | 57 | 319 | 1.0 | 5.0 | 0.00 | 0.00 | 0.00 | 76 | 1022.2 |
| 20260509055005 | 57 | 328 | 2.0 | 5.0 | 0.00 | 0.00 | 0.00 | 76 | 1022.1 |
| 20260509054004 | 57 | 324 | 2.0 | 6.0 | 0.00 | 0.00 | 0.00 | 76 | 1022.1 |
| 20260509053505 | 57 | 311 | 3.0 | 5.0 | 0.00 | 0.00 | 0.00 | 75 | 1022.1 |
| 20260509053006 | 57 | 317 | 3.0 | 6.0 | 0.00 | 0.00 | 0.00 | 75 | 1022.1 |
| 20260509052505 | 58 | 323 | 3.0 | 6.0 | 0.00 | 0.00 | 0.00 | 75 | 1022.2 |
| 20260509052005 | 58 | 320 | 3.0 | 5.0 | 0.00 | 0.00 | 0.00 | 75 | 1022.2 |